Cheyenne, WY

12:54 AM MST on December 16, 2019 (GMT -0700)
Cheyenne

Weather History for KCYS - November, 2019

Change the Weather History Date:

Friday, November 15, 2019

  Actual Average Record
Temperature  
Mean Temperature 46 °F -  
Max Temperature 63 °F 45 °F 75 °F (1999)
Min Temperature 30 °F 23 °F -7 °F (1872)
Degree Days  
Heating Degree Days 18    
Moisture  
Dew Point 21 °F    
Average Humidity 38    
Maximum Humidity 72    
Minimum Humidity 18    
Precipitation  
Precipitation 0.00 in - - ()
Sea Level Pressure  
Sea Level Pressure 30.05 in    
Wind  
Wind Speed 9 mph ()    
Max Wind Speed 26 mph    
Max Gust Speed 32 mph    
Visibility 10.0 miles    
Events      
Averages and records for this station are not official NWS values.
T = Trace of Precipitation, MM = Missing Value Source: Averaged Metar Reports

Daily Weather History Graph

Daily Weather History Graph

Search for Another Location

Airport or City:

Astronomy

Nov. 15, 2019 Rise Set
Actual Time 6:46 AM MST 4:40 PM MST
Civil Twilight 6:17 AM MST 5:09 PM MST
Nautical Twilight 5:43 AM MST 5:43 PM MST
Astronomical Twilight 5:11 AM MST 6:15 PM MST
Moon 7:17 PM MST (11/15) 9:46 AM MST (11/15)
Length of Visible Light 10h 52m
Length of Day
9h 53m
Waning Gibbous, 89% of the Moon is Illuminated
Nov 15
Waning Gibbous
Nov 19
Last Quarter
Nov 26
New
Dec 3
First Quarter
Dec 11
Full

Hourly Weather History & Observations

Time (MST) Temp. Windchill Dew Point Humidity Pressure Visibility Wind Dir Wind Speed Gust Speed Precip Events Conditions
12:53 AM 35.1 °F 27.9 °F 25.0 °F 67% 30.15 in 10.0 mi WSW 9.2 mph - N/A   Clear
1:53 AM 30.9 °F 26.2 °F 23.0 °F 72% 30.14 in 10.0 mi West 4.6 mph - N/A   Clear
2:53 AM 33.1 °F 28.7 °F 23.0 °F 66% 30.14 in 10.0 mi WNW 4.6 mph - N/A   Clear
3:53 AM 32.0 °F 26.4 °F 21.9 °F 66% 30.14 in 10.0 mi WSW 5.8 mph - N/A   Clear
4:53 AM 34.0 °F 28.8 °F 21.9 °F 61% 30.15 in 10.0 mi NW 5.8 mph - N/A   Clear
5:53 AM 45.0 °F 41.8 °F 19.0 °F 36% 30.12 in 10.0 mi Variable 5.8 mph - N/A   Clear
6:53 AM 44.1 °F 40.8 °F 19.0 °F 37% 30.12 in 10.0 mi South 5.8 mph - N/A   Clear
7:53 AM 51.1 °F - 19.9 °F 29% 30.09 in 10.0 mi West 21.9 mph - N/A   Clear
8:53 AM 55.0 °F - 19.9 °F 25% 30.09 in 10.0 mi West 26.5 mph 32.2 mph N/A   Clear
9:53 AM 55.9 °F - 21.0 °F 26% 30.09 in 10.0 mi West 20.7 mph 29.9 mph N/A   Clear
10:53 AM 59.0 °F - 21.0 °F 23% 30.07 in 10.0 mi West 18.4 mph 26.5 mph N/A   Clear
11:53 AM 62.1 °F - 19.9 °F 20% 30.02 in 10.0 mi West 19.6 mph 27.6 mph N/A   Clear
12:53 PM 62.1 °F - 19.0 °F 19% 29.99 in 10.0 mi West 15.0 mph - N/A   Clear
1:53 PM 63.0 °F - 18.0 °F 18% 30.00 in 10.0 mi West 17.3 mph - N/A   Clear
2:53 PM 61.0 °F - 19.9 °F 21% 30.00 in 10.0 mi West 15.0 mph - N/A   Clear
3:53 PM 60.1 °F - 19.9 °F 21% 30.01 in 10.0 mi West 12.7 mph - N/A   Clear
4:53 PM 55.0 °F - 21.9 °F 28% 30.02 in 10.0 mi NW 8.1 mph - N/A   Clear
5:53 PM 51.1 °F - 21.9 °F 32% 30.01 in 10.0 mi NW 3.5 mph - N/A   Clear
6:53 PM 46.0 °F 43.1 °F 24.1 °F 42% 30.04 in 10.0 mi WNW 5.8 mph - N/A   Clear
7:53 PM 44.1 °F 40.8 °F 23.0 °F 43% 30.01 in 10.0 mi Variable 5.8 mph - N/A   Clear
8:53 PM 44.1 °F 39.5 °F 24.1 °F 45% 29.96 in 10.0 mi WSW 8.1 mph - N/A   Clear
9:53 PM 45.0 °F 42.6 °F 23.0 °F 42% 29.96 in 10.0 mi WSW 4.6 mph - N/A   Clear
10:53 PM 45.0 °F 41.2 °F 21.9 °F 40% 29.95 in 10.0 mi West 6.9 mph - N/A   Clear
11:53 PM 44.1 °F 38.6 °F 21.0 °F 40% 29.93 in 10.0 mi West 10.4 mph - N/A   Clear